Time,TemperatureF,DewpointF,PressureIn,WindDirection,WindDirectionDegrees,WindSpeedMPH,WindSpeedGustMPH,Humidity,HourlyPrecipIn,Conditions,Clouds,dailyrainin,SoftwareType,DateUTC
2013-04-22 00:01:00,42.8,29.1,30.16,NNW,328,2.2,2.2,58,0.00,,,0.00,VWS V14.00,2013-04-22 04:01:00,
2013-04-22 00:02:00,42.6,29.3,30.16,NW,317,0.0,2.7,59,0.00,,,0.00,VWS V14.00,2013-04-22 04:02:00,
2013-04-22 00:04:00,42.6,29.3,30.16,NW,317,2.2,2.2,59,0.00,,,0.00,VWS V14.00,2013-04-22 04:04:00,
2013-04-22 00:09:00,42.4,29.1,30.16,NW,315,2.7,2.7,59,0.00,,,0.00,VWS V14.00,2013-04-22 04:09:00,
2013-04-22 00:10:00,42.4,29.1,30.16,NNW,346,0.0,2.7,59,0.00,,,0.00,VWS V14.00,2013-04-22 04:10:00,
2013-04-22 00:14:00,42.4,29.1,30.16,NW,308,0.0,2.7,59,0.00,,,0.00,VWS V14.00,2013-04-22 04:14:00,
2013-04-22 00:19:00,42.3,29.0,30.16,NW,308,2.7,2.7,59,0.00,,,0.00,VWS V14.00,2013-04-22 04:19:00,
2013-04-22 00:24:00,42.1,28.8,30.16,NW,321,0.0,2.7,59,0.00,,,0.00,VWS V14.00,2013-04-22 04:24:00,
2013-04-22 00:30:00,41.9,28.6,30.16,WNW,299,0.0,2.2,59,0.00,,,0.00,VWS V14.00,2013-04-22 04:30:00,
2013-04-22 00:35:00,41.9,28.6,30.16,WNW,302,2.2,2.7,59,0.00,,,0.00,VWS V14.00,2013-04-22 04:35:00,
2013-04-22 00:41:00,41.5,28.7,30.16,NNW,334,2.2,2.2,60,0.00,,,0.00,VWS V14.00,2013-04-22 04:41:00,
2013-04-22 00:46:00,41.5,28.7,30.16,NNW,330,0.0,0.0,60,0.00,,,0.00,VWS V14.00,2013-04-22 04:46:00,
2013-04-22 00:52:00,41.2,28.4,30.16,NW,318,0.0,2.2,60,0.00,,,0.00,VWS V14.00,2013-04-22 04:52:00,
2013-04-22 00:57:00,41.2,28.4,30.16,North,353,2.7,2.7,60,0.00,,,0.00,VWS V14.00,2013-04-22 04:57:00,
2013-04-22 01:02:00,41.0,28.6,30.16,NNW,336,0.0,2.7,61,0.00,,,0.00,VWS V14.00,2013-04-22 05:02:00,
2013-04-22 01:08:00,41.0,28.6,30.16,North,350,2.7,2.7,61,0.00,,,0.00,VWS V14.00,2013-04-22 05:08:00,
2013-04-22 01:13:00,40.8,28.4,30.16,North,353,0.0,0.0,61,0.00,,,0.00,VWS V14.00,2013-04-22 05:13:00,
2013-04-22 01:19:00,40.6,28.6,30.16,NNW,337,2.7,2.7,62,0.00,,,0.00,VWS V14.00,2013-04-22 05:19:00,
2013-04-22 01:24:00,40.5,28.5,30.16,WNW,295,0.0,2.7,62,0.00,,,0.00,VWS V14.00,2013-04-22 05:24:00,
2013-04-22 01:29:00,40.5,28.9,30.16,NNW,344,0.0,2.7,63,0.00,,,0.00,VWS V14.00,2013-04-22 05:29:00,
2013-04-22 01:34:00,40.5,28.9,30.16,WSW,250,0.0,2.2,63,0.00,,,0.00,VWS V14.00,2013-04-22 05:34:00,
2013-04-22 01:40:00,40.3,28.7,30.16,WSW,252,2.7,2.7,63,0.00,,,0.00,VWS V14.00,2013-04-22 05:40:00,
2013-04-22 01:45:00,40.3,29.1,30.16,SW,229,0.0,3.1,64,0.00,,,0.00,VWS V14.00,2013-04-22 05:45:00,
2013-04-22 01:51:00,39.9,29.1,30.16,NNE,27,2.7,3.6,65,0.00,,,0.00,VWS V14.00,2013-04-22 05:51:00,
2013-04-22 01:57:00,39.9,29.1,30.16,NE,38,0.0,2.2,65,0.00,,,0.00,VWS V14.00,2013-04-22 05:57:00,
2013-04-22 02:02:00,39.7,29.0,30.16,SW,232,2.2,3.6,65,0.00,,,0.00,VWS V14.00,2013-04-22 06:02:00,
2013-04-22 02:08:00,39.7,29.3,30.16,NNW,342,0.0,0.0,66,0.00,,,0.00,VWS V14.00,2013-04-22 06:08:00,
2013-04-22 02:13:00,39.6,29.1,30.16,North,9,0.0,0.0,66,0.00,,,0.00,VWS V14.00,2013-04-22 06:13:00,
2013-04-22 02:18:00,39.6,29.1,30.16,NNW,339,0.0,0.0,66,0.00,,,0.00,VWS V14.00,2013-04-22 06:18:00,
2013-04-22 02:23:00,39.4,29.0,30.16,NNW,343,0.0,0.0,66,0.00,,,0.00,VWS V14.00,2013-04-22 06:23:00,
2013-04-22 02:29:00,39.2,29.2,30.13,NNW,345,0.0,2.7,67,0.00,,,0.00,VWS V14.00,2013-04-22 06:29:00,
2013-04-22 02:34:00,39.2,29.2,30.13,NNW,334,0.0,0.0,67,0.00,,,0.00,VWS V14.00,2013-04-22 06:34:00,
2013-04-22 02:39:00,39.0,29.4,30.13,NW,313,2.2,2.2,68,0.00,,,0.00,VWS V14.00,2013-04-22 06:39:00,
2013-04-22 02:44:00,39.0,29.4,30.13,NNW,341,2.2,2.2,68,0.00,,,0.00,VWS V14.00,2013-04-22 06:44:00,
2013-04-22 02:49:00,38.8,29.5,30.13,NNW,344,0.0,2.2,69,0.00,,,0.00,VWS V14.00,2013-04-22 06:49:00,
2013-04-22 02:54:00,38.8,29.5,30.13,NNW,344,0.0,0.0,69,0.00,,,0.00,VWS V14.00,2013-04-22 06:54:00,
2013-04-22 02:59:00,38.7,29.4,30.13,WNW,301,2.7,2.7,69,0.00,,,0.00,VWS V14.00,2013-04-22 06:59:00,
2013-04-22 03:05:00,38.7,29.4,30.13,NW,321,0.0,0.0,69,0.00,,,0.00,VWS V14.00,2013-04-22 07:05:00,
2013-04-22 03:11:00,38.5,29.2,30.13,NW,317,0.0,0.0,69,0.00,,,0.00,VWS V14.00,2013-04-22 07:11:00,
2013-04-22 03:16:00,38.5,29.2,30.13,NW,317,0.0,0.0,69,0.00,,,0.00,VWS V14.00,2013-04-22 07:16:00,
2013-04-22 03:21:00,38.1,28.9,30.13,NW,314,0.0,0.0,69,0.00,,,0.00,VWS V14.00,2013-04-22 07:21:00,
2013-04-22 03:26:00,38.1,28.9,30.13,NW,315,0.0,0.0,69,0.00,,,0.00,VWS V14.00,2013-04-22 07:26:00,
2013-04-22 03:32:00,37.9,28.7,30.13,NW,317,0.0,0.0,69,0.00,,,0.00,VWS V14.00,2013-04-22 07:32:00,
2013-04-22 03:38:00,37.8,28.5,30.13,WNW,284,2.7,2.7,69,0.00,,,0.00,VWS V14.00,2013-04-22 07:38:00,
2013-04-22 03:43:00,37.6,28.7,30.13,NW,304,0.0,0.0,70,0.00,,,0.00,VWS V14.00,2013-04-22 07:43:00,
2013-04-22 03:49:00,37.6,28.7,30.13,NW,304,0.0,2.7,70,0.00,,,0.00,VWS V14.00,2013-04-22 07:49:00,
2013-04-22 03:54:00,37.6,28.7,30.13,NNW,334,2.7,2.7,70,0.00,,,0.00,VWS V14.00,2013-04-22 07:54:00,
2013-04-22 04:00:00,37.4,28.5,30.13,North,1,0.0,2.7,70,0.00,,,0.00,VWS V14.00,2013-04-22 08:00:00,
2013-04-22 04:05:00,37.4,28.5,30.13,NW,324,0.0,0.0,70,0.00,,,0.00,VWS V14.00,2013-04-22 08:05:00,
2013-04-22 04:11:00,37.4,28.5,30.13,WNW,295,2.7,2.7,70,0.00,,,0.00,VWS V14.00,2013-04-22 08:11:00,
2013-04-22 04:17:00,37.2,28.7,30.13,WNW,303,0.0,2.2,71,0.00,,,0.00,VWS V14.00,2013-04-22 08:17:00,
2013-04-22 04:22:00,37.2,28.7,30.10,NNW,345,0.0,2.2,71,0.00,,,0.00,VWS V14.00,2013-04-22 08:22:00,
2013-04-22 04:27:00,37.0,28.5,30.10,NW,306,0.0,2.2,71,0.00,,,0.00,VWS V14.00,2013-04-22 08:27:00,
2013-04-22 04:33:00,37.0,28.5,30.10,WNW,290,0.0,2.2,71,0.00,,,0.00,VWS V14.00,2013-04-22 08:33:00,
2013-04-22 04:38:00,37.0,28.5,30.10,WNW,292,0.0,0.0,71,0.00,,,0.00,VWS V14.00,2013-04-22 08:38:00,
2013-04-22 04:43:00,36.9,28.4,30.10,WNW,293,0.0,0.0,71,0.00,,,0.00,VWS V14.00,2013-04-22 08:43:00,
2013-04-22 04:49:00,36.9,28.4,30.10,WNW,284,2.7,2.7,71,0.00,,,0.00,VWS V14.00,2013-04-22 08:49:00,
2013-04-22 04:54:00,36.7,28.5,30.10,NW,313,2.7,2.7,72,0.00,,,0.00,VWS V14.00,2013-04-22 08:54:00,
2013-04-22 04:59:00,36.7,28.5,30.10,WNW,303,2.2,3.1,72,0.00,,,0.00,VWS V14.00,2013-04-22 08:59:00,
2013-04-22 05:04:00,36.5,28.4,30.10,West,281,0.0,2.2,72,0.00,,,0.00,VWS V14.00,2013-04-22 09:04:00,
2013-04-22 05:10:00,36.5,28.4,30.10,West,279,0.0,0.0,72,0.00,,,0.00,VWS V14.00,2013-04-22 09:10:00,
2013-04-22 05:15:00,36.3,28.2,30.10,West,280,0.0,2.2,72,0.00,,,0.00,VWS V14.00,2013-04-22 09:15:00,
2013-04-22 05:21:00,36.3,28.2,30.10,WNW,283,0.0,0.0,72,0.00,,,0.00,VWS V14.00,2013-04-22 09:21:00,
2013-04-22 05:27:00,36.1,28.0,30.10,SW,214,0.0,0.0,72,0.00,,,0.00,VWS V14.00,2013-04-22 09:27:00,
2013-04-22 05:32:00,36.1,28.0,30.10,WSW,247,0.0,0.0,72,0.00,,,0.00,VWS V14.00,2013-04-22 09:32:00,
2013-04-22 05:37:00,36.1,28.0,30.10,WSW,245,0.0,0.0,72,0.00,,,0.00,VWS V14.00,2013-04-22 09:37:00,
2013-04-22 05:43:00,36.0,27.8,30.10,WSW,245,0.0,0.0,72,0.00,,,0.00,VWS V14.00,2013-04-22 09:43:00,
2013-04-22 05:49:00,35.8,27.6,30.10,WSW,247,0.0,0.0,72,0.00,,,0.00,VWS V14.00,2013-04-22 09:49:00,
2013-04-22 05:55:00,35.8,27.6,30.10,WSW,247,0.0,0.0,72,0.00,,,0.00,VWS V14.00,2013-04-22 09:55:00,
2013-04-22 06:00:00,35.6,27.8,30.10,WSW,257,0.0,2.2,73,0.00,,,0.00,VWS V14.00,2013-04-22 10:00:00,
2013-04-22 06:06:00,35.6,27.8,30.10,West,260,0.0,0.0,73,0.00,,,0.00,VWS V14.00,2013-04-22 10:06:00,
2013-04-22 06:11:00,35.6,27.8,30.10,WSW,257,0.0,0.0,73,0.00,,,0.00,VWS V14.00,2013-04-22 10:11:00,
2013-04-22 06:16:00,35.6,27.8,30.10,WSW,258,0.0,0.0,73,0.00,,,0.00,VWS V14.00,2013-04-22 10:16:00,
2013-04-22 06:21:00,35.4,28.0,30.10,West,260,0.0,2.2,74,0.00,,,0.00,VWS V14.00,2013-04-22 10:21:00,
2013-04-22 06:26:00,35.4,28.0,30.10,West,259,2.2,2.2,74,0.00,,,0.00,VWS V14.00,2013-04-22 10:26:00,
2013-04-22 06:31:00,35.4,28.0,30.10,WSW,258,0.0,0.0,74,0.00,,,0.00,VWS V14.00,2013-04-22 10:31:00,
2013-04-22 06:37:00,35.4,28.3,30.10,West,259,0.0,0.0,75,0.00,,,0.00,VWS V14.00,2013-04-22 10:37:00,
2013-04-22 06:42:00,35.4,28.3,30.10,WSW,258,0.0,0.0,75,0.00,,,0.00,VWS V14.00,2013-04-22 10:42:00,
2013-04-22 06:47:00,35.4,28.3,30.10,West,260,2.2,2.7,75,0.00,,,0.00,VWS V14.00,2013-04-22 10:47:00,
2013-04-22 06:52:00,35.4,28.3,30.10,West,259,0.0,0.0,75,0.00,,,0.00,VWS V14.00,2013-04-22 10:52:00,
2013-04-22 06:57:00,35.4,28.3,30.10,West,261,0.0,0.0,75,0.00,,,0.00,VWS V14.00,2013-04-22 10:57:00,
2013-04-22 07:03:00,35.4,28.3,30.13,West,259,0.0,0.0,75,0.00,,,0.00,VWS V14.00,2013-04-22 11:03:00,
2013-04-22 07:08:00,35.4,28.3,30.13,WSW,258,2.7,2.7,75,0.00,,,0.00,VWS V14.00,2013-04-22 11:08:00,
2013-04-22 07:13:00,35.4,28.6,30.13,West,261,2.7,2.7,76,0.00,,,0.00,VWS V14.00,2013-04-22 11:13:00,
2013-04-22 07:18:00,35.4,28.6,30.10,West,262,0.0,0.0,76,0.00,,,0.00,VWS V14.00,2013-04-22 11:18:00,
2013-04-22 07:24:00,35.4,28.6,30.10,NNW,329,0.0,0.0,76,0.00,,,0.00,VWS V14.00,2013-04-22 11:24:00,
2013-04-22 07:30:00,35.6,28.8,30.10,NW,325,0.0,2.2,76,0.00,,,0.00,VWS V14.00,2013-04-22 11:30:00,
2013-04-22 07:35:00,35.6,28.8,30.10,WSW,250,2.2,2.7,76,0.00,,,0.00,VWS V14.00,2013-04-22 11:35:00,
2013-04-22 07:41:00,35.8,29.0,30.10,WSW,252,2.2,2.2,76,0.00,,,0.00,VWS V14.00,2013-04-22 11:41:00,
2013-04-22 07:46:00,36.0,29.1,30.10,WNW,296,3.1,3.1,76,0.00,,,0.00,VWS V14.00,2013-04-22 11:46:00,
2013-04-22 07:51:00,36.0,29.1,30.10,West,277,0.0,0.0,76,0.00,,,0.00,VWS V14.00,2013-04-22 11:51:00,
2013-04-22 07:56:00,36.1,29.3,30.10,West,279,0.0,0.0,76,0.00,,,0.00,VWS V14.00,2013-04-22 11:56:00,
2013-04-22 08:02:00,36.1,29.3,30.10,SW,224,4.0,4.0,76,0.00,,,0.00,VWS V14.00,2013-04-22 12:02:00,
2013-04-22 08:08:00,36.5,29.7,30.10,NW,321,0.0,0.0,76,0.00,,,0.00,VWS V14.00,2013-04-22 12:08:00,
2013-04-22 08:13:00,36.7,29.8,30.10,NW,319,0.0,3.1,76,0.00,,,0.00,VWS V14.00,2013-04-22 12:13:00,
2013-04-22 08:19:00,37.0,29.9,30.10,NW,318,0.0,2.2,75,0.00,,,0.00,VWS V14.00,2013-04-22 12:19:00,
2013-04-22 08:24:00,37.2,30.0,30.10,ENE,57,3.1,3.1,75,0.00,,,0.00,VWS V14.00,2013-04-22 12:24:00,
2013-04-22 08:30:00,37.9,30.4,30.10,North,357,0.0,2.2,74,0.00,,,0.00,VWS V14.00,2013-04-22 12:30:00,
2013-04-22 08:36:00,38.3,30.8,30.10,NNW,339,4.0,4.0,74,0.00,,,0.00,VWS V14.00,2013-04-22 12:36:00,
2013-04-22 08:41:00,38.7,30.8,30.10,NW,318,2.7,2.7,73,0.00,,,0.00,VWS V14.00,2013-04-22 12:41:00,
2013-04-22 08:47:00,39.0,31.1,30.10,NNW,334,3.6,4.0,73,0.00,,,0.00,VWS V14.00,2013-04-22 12:47:00,
2013-04-22 08:52:00,39.6,31.0,30.10,NNW,346,2.7,4.0,71,0.00,,,0.00,VWS V14.00,2013-04-22 12:52:00,
2013-04-22 08:57:00,39.7,31.1,30.10,NW,312,2.7,2.7,71,0.00,,,0.00,VWS V14.00,2013-04-22 12:57:00,
2013-04-22 09:02:00,40.5,31.5,30.10,NNW,328,2.7,3.6,70,0.00,,,0.00,VWS V14.00,2013-04-22 13:02:00,
2013-04-22 09:08:00,40.6,31.3,30.10,NW,317,0.0,0.0,69,0.00,,,0.00,VWS V14.00,2013-04-22 13:08:00,
2013-04-22 09:13:00,41.4,31.2,30.10,West,281,2.2,4.0,67,0.00,,,0.00,VWS V14.00,2013-04-22 13:13:00,
2013-04-22 09:18:00,41.7,30.8,30.10,NNE,24,3.1,3.1,65,0.00,,,0.00,VWS V14.00,2013-04-22 13:18:00,
2013-04-22 09:23:00,42.4,30.8,30.10,NW,325,2.2,2.2,63,0.00,,,0.00,VWS V14.00,2013-04-22 13:23:00,
2013-04-22 09:28:00,42.8,30.7,30.10,WSW,238,3.6,3.6,62,0.00,,,0.00,VWS V14.00,2013-04-22 13:28:00,
2013-04-22 09:33:00,43.3,30.0,30.10,SSW,195,2.7,3.1,59,0.00,,,0.00,VWS V14.00,2013-04-22 13:33:00,
2013-04-22 09:39:00,44.1,30.7,30.10,NNW,331,3.6,3.6,59,0.00,,,0.00,VWS V14.00,2013-04-22 13:39:00,
2013-04-22 09:44:00,44.2,30.4,30.10,South,177,0.0,0.0,58,0.00,,,0.00,VWS V14.00,2013-04-22 13:44:00,
2013-04-22 09:49:00,44.8,30.5,30.10,NNW,344,2.7,2.7,57,0.00,,,0.00,VWS V14.00,2013-04-22 13:49:00,
2013-04-22 09:54:00,45.3,30.1,30.10,South,190,3.6,3.6,55,0.00,,,0.00,VWS V14.00,2013-04-22 13:54:00,
2013-04-22 10:00:00,45.5,30.3,30.10,SE,141,2.2,4.0,55,0.00,,,0.00,VWS V14.00,2013-04-22 14:00:00,
2013-04-22 10:05:00,46.4,30.7,30.10,South,188,3.1,3.1,54,0.00,,,0.00,VWS V14.00,2013-04-22 14:05:00,
2013-04-22 10:11:00,46.6,30.8,30.10,SSW,194,0.0,0.0,54,0.00,,,0.00,VWS V14.00,2013-04-22 14:11:00,
2013-04-22 10:16:00,47.1,31.4,30.10,SE,139,2.2,3.1,54,0.00,,,0.00,VWS V14.00,2013-04-22 14:16:00,
2013-04-22 10:22:00,47.7,30.4,30.10,SSE,163,2.2,2.2,51,0.00,,,0.00,VWS V14.00,2013-04-22 14:22:00,
2013-04-22 10:27:00,48.4,29.6,30.10,SSW,197,0.0,5.8,48,0.00,,,0.00,VWS V14.00,2013-04-22 14:27:00,
2013-04-22 10:33:00,48.6,29.8,30.10,SSW,204,6.7,8.1,48,0.00,,,0.00,VWS V14.00,2013-04-22 14:33:00,
2013-04-22 10:39:00,48.9,29.6,30.10,SSW,206,2.2,5.4,47,0.00,,,0.00,VWS V14.00,2013-04-22 14:39:00,
2013-04-22 10:44:00,49.5,30.6,30.07,WSW,241,0.0,4.0,48,0.00,,,0.00,VWS V14.00,2013-04-22 14:44:00,
2013-04-22 10:50:00,50.0,30.0,30.07,SSE,154,3.1,8.3,46,0.00,,,0.00,VWS V14.00,2013-04-22 14:50:00,
2013-04-22 10:56:00,50.2,29.7,30.07,South,189,2.2,4.0,45,0.00,,,0.00,VWS V14.00,2013-04-22 14:56:00,
2013-04-22 11:01:00,50.4,29.8,30.07,SSW,199,8.3,8.3,45,0.00,,,0.00,VWS V14.00,2013-04-22 15:01:00,
2013-04-22 11:07:00,50.7,30.7,30.07,SSW,194,4.0,4.0,46,0.00,,,0.00,VWS V14.00,2013-04-22 15:07:00,
2013-04-22 11:12:00,51.1,31.0,30.07,South,173,5.8,5.8,46,0.00,,,0.00,VWS V14.00,2013-04-22 15:12:00,
2013-04-22 11:17:00,51.4,31.4,30.07,SSW,204,3.1,3.1,46,0.00,,,0.00,VWS V14.00,2013-04-22 15:17:00,
2013-04-22 11:22:00,52.0,31.3,30.07,SSW,200,3.6,5.8,45,0.00,,,0.00,VWS V14.00,2013-04-22 15:22:00,
2013-04-22 11:27:00,52.3,32.2,30.07,South,180,3.1,3.1,46,0.00,,,0.00,VWS V14.00,2013-04-22 15:27:00,
2013-04-22 11:32:00,52.9,32.7,30.07,NNE,27,2.7,4.0,46,0.00,,,0.00,VWS V14.00,2013-04-22 15:32:00,
2013-04-22 11:37:00,53.2,33.0,30.07,NW,307,0.0,0.0,46,0.00,,,0.00,VWS V14.00,2013-04-22 15:37:00,
2013-04-22 11:43:00,54.0,34.2,30.07,West,270,2.7,2.7,47,0.00,,,0.00,VWS V14.00,2013-04-22 15:43:00,
2013-04-22 11:49:00,54.5,34.2,30.07,South,189,3.1,3.1,46,0.00,,,0.00,VWS V14.00,2013-04-22 15:49:00,
2013-04-22 11:54:00,54.9,33.9,30.07,West,261,4.0,4.0,45,0.00,,,0.00,VWS V14.00,2013-04-22 15:54:00,
2013-04-22 12:00:00,55.6,34.0,30.07,WSW,247,2.7,3.6,44,0.00,,,0.00,VWS V14.00,2013-04-22 16:00:00,
2013-04-22 12:05:00,55.8,33.0,30.04,SSW,192,2.7,3.1,42,0.00,,,0.00,VWS V14.00,2013-04-22 16:05:00,
2013-04-22 12:10:00,56.1,35.1,30.04,NE,47,3.6,3.6,45,0.00,,,0.00,VWS V14.00,2013-04-22 16:10:00,
2013-04-22 12:15:00,56.7,32.6,30.04,SSW,200,2.2,5.4,40,0.00,,,0.00,VWS V14.00,2013-04-22 16:15:00,
2013-04-22 12:21:00,56.8,32.8,30.07,SSW,203,2.2,2.2,40,0.00,,,0.00,VWS V14.00,2013-04-22 16:21:00,
2013-04-22 12:26:00,57.4,34.5,30.07,SSW,206,2.2,2.7,42,0.00,,,0.00,VWS V14.00,2013-04-22 16:26:00,
2013-04-22 12:33:00,58.1,34.5,30.07,NNW,344,3.6,3.6,41,0.00,,,0.00,VWS V14.00,2013-04-22 16:33:00,
2013-04-22 12:39:00,58.8,35.2,30.07,WSW,243,0.0,3.1,41,0.00,,,0.00,VWS V14.00,2013-04-22 16:39:00,
2013-04-22 12:45:00,59.5,34.6,30.07,West,270,0.0,2.7,39,0.00,,,0.00,VWS V14.00,2013-04-22 16:45:00,
2013-04-22 12:50:00,60.1,33.8,30.07,SSW,198,2.7,4.0,37,0.00,,,0.00,VWS V14.00,2013-04-22 16:50:00,
2013-04-22 12:55:00,60.4,34.7,30.07,SW,225,0.0,0.0,38,0.00,,,0.00,VWS V14.00,2013-04-22 16:55:00,
2013-04-22 13:00:00,61.3,34.9,30.04,South,174,3.6,4.0,37,0.00,,,0.00,VWS V14.00,2013-04-22 17:00:00,
2013-04-22 13:06:00,62.1,34.8,30.04,NNE,23,2.7,2.7,36,0.00,,,0.00,VWS V14.00,2013-04-22 17:06:00,
2013-04-22 13:11:00,62.6,34.6,30.04,NNW,335,0.0,0.0,35,0.00,,,0.00,VWS V14.00,2013-04-22 17:11:00,
2013-04-22 13:16:00,63.0,34.9,30.04,East,96,2.2,2.2,35,0.00,,,0.00,VWS V14.00,2013-04-22 17:16:00,
2013-04-22 13:21:00,63.7,36.2,30.04,NW,320,2.2,2.2,36,0.00,,,0.00,VWS V14.00,2013-04-22 17:21:00,
2013-04-22 13:26:00,64.4,36.2,30.04,WSW,242,0.0,3.1,35,0.00,,,0.00,VWS V14.00,2013-04-22 17:26:00,
2013-04-22 13:31:00,64.9,35.9,30.04,SSE,165,3.6,3.6,34,0.00,,,0.00,VWS V14.00,2013-04-22 17:31:00,
2013-04-22 13:36:00,65.5,36.4,30.04,NW,320,3.1,3.1,34,0.00,,,0.00,VWS V14.00,2013-04-22 17:36:00,
2013-04-22 13:42:00,65.8,36.7,30.04,WNW,283,2.7,2.7,34,0.00,,,0.00,VWS V14.00,2013-04-22 17:42:00,
2013-04-22 13:48:00,66.2,36.3,30.04,WSW,256,3.6,3.6,33,0.00,,,0.00,VWS V14.00,2013-04-22 17:48:00,
2013-04-22 13:53:00,66.6,35.0,30.04,SW,224,3.6,3.6,31,0.00,,,0.00,VWS V14.00,2013-04-22 17:53:00,
2013-04-22 13:58:00,66.7,35.2,30.01,NNW,327,2.7,3.6,31,0.00,,,0.00,VWS V14.00,2013-04-22 17:58:00,
2013-04-22 14:03:00,67.6,36.8,30.01,SW,215,0.0,0.0,32,0.00,,,0.00,VWS V14.00,2013-04-22 18:03:00,
2013-04-22 14:08:00,68.0,33.7,30.01,SSW,206,3.1,3.1,28,0.00,,,0.00,VWS V14.00,2013-04-22 18:08:00,
2013-04-22 14:13:00,68.5,35.0,30.01,NE,56,2.7,3.1,29,0.00,,,0.00,VWS V14.00,2013-04-22 18:13:00,
2013-04-22 14:19:00,69.1,34.6,30.01,NW,307,0.0,3.1,28,0.00,,,0.00,VWS V14.00,2013-04-22 18:19:00,
2013-04-22 14:24:00,69.1,33.7,30.01,NNW,346,2.7,4.0,27,0.00,,,0.00,VWS V14.00,2013-04-22 18:24:00,
2013-04-22 14:29:00,69.6,34.2,30.01,SSW,197,4.0,5.4,27,0.00,,,0.00,VWS V14.00,2013-04-22 18:29:00,
2013-04-22 14:35:00,69.8,34.3,30.01,NE,42,3.1,3.1,27,0.00,,,0.00,VWS V14.00,2013-04-22 18:35:00,
2013-04-22 14:40:00,70.5,33.0,30.01,NE,41,2.2,3.1,25,0.00,,,0.00,VWS V14.00,2013-04-22 18:40:00,
2013-04-22 14:45:00,70.7,33.2,30.01,WNW,297,2.2,2.2,25,0.00,,,0.00,VWS V14.00,2013-04-22 18:45:00,
2013-04-22 14:51:00,70.7,32.2,30.01,West,270,2.7,5.4,24,0.00,,,0.00,VWS V14.00,2013-04-22 18:51:00,
2013-04-22 14:56:00,70.9,33.3,30.01,East,90,2.7,2.7,25,0.00,,,0.00,VWS V14.00,2013-04-22 18:56:00,
2013-04-22 15:02:00,71.2,32.6,30.01,ESE,118,2.7,2.7,24,0.00,,,0.00,VWS V14.00,2013-04-22 19:02:00,
2013-04-22 15:07:00,71.6,32.9,30.01,SW,218,5.4,5.4,24,0.00,,,0.00,VWS V14.00,2013-04-22 19:07:00,
2013-04-22 15:13:00,72.1,33.4,30.01,West,259,2.7,2.7,24,0.00,,,0.00,VWS V14.00,2013-04-22 19:13:00,
2013-04-22 15:19:00,72.3,33.5,30.01,WSW,250,2.7,2.7,24,0.00,,,0.00,VWS V14.00,2013-04-22 19:19:00,
2013-04-22 15:24:00,72.5,32.6,30.01,SSW,208,4.0,4.0,23,0.00,,,0.00,VWS V14.00,2013-04-22 19:24:00,
2013-04-22 15:30:00,72.5,32.6,29.98,South,172,5.8,5.8,23,0.00,,,0.00,VWS V14.00,2013-04-22 19:30:00,
2013-04-22 15:35:00,72.5,31.5,29.98,SSW,213,4.5,6.3,22,0.00,,,0.00,VWS V14.00,2013-04-22 19:35:00,
2013-04-22 15:40:00,72.7,32.8,29.98,SSW,195,0.0,0.0,23,0.00,,,0.00,VWS V14.00,2013-04-22 19:40:00,
2013-04-22 15:45:00,73.0,33.1,29.98,ENE,71,2.2,3.6,23,0.00,,,0.00,VWS V14.00,2013-04-22 19:45:00,
2013-04-22 15:51:00,72.9,31.8,29.98,SW,215,4.5,6.3,22,0.00,,,0.00,VWS V14.00,2013-04-22 19:51:00,
2013-04-22 15:57:00,72.5,31.5,29.98,South,177,5.8,5.8,22,0.00,,,0.00,VWS V14.00,2013-04-22 19:57:00,
2013-04-22 16:02:00,72.9,32.9,29.98,West,265,2.7,2.7,23,0.00,,,0.00,VWS V14.00,2013-04-22 20:02:00,
2013-04-22 16:08:00,72.5,31.5,29.98,South,174,2.7,3.1,22,0.00,,,0.00,VWS V14.00,2013-04-22 20:08:00,
2013-04-22 16:13:00,72.1,31.2,29.98,SE,143,2.2,3.6,22,0.00,,,0.00,VWS V14.00,2013-04-22 20:13:00,
2013-04-22 16:18:00,72.3,31.4,29.98,SSW,203,4.0,4.0,22,0.00,,,0.00,VWS V14.00,2013-04-22 20:18:00,
2013-04-22 16:23:00,72.3,31.4,29.98,SSW,206,5.8,5.8,22,0.00,,,0.00,VWS V14.00,2013-04-22 20:23:00,
2013-04-22 16:28:00,71.8,30.9,29.98,SSW,204,6.3,6.3,22,0.00,,,0.00,VWS V14.00,2013-04-22 20:28:00,
2013-04-22 16:33:00,71.4,31.7,29.96,SSW,203,5.4,5.4,23,0.00,,,0.00,VWS V14.00,2013-04-22 20:33:00,
2013-04-22 16:38:00,71.2,31.6,29.96,NW,324,0.0,0.0,23,0.00,,,0.00,VWS V14.00,2013-04-22 20:38:00,
2013-04-22 16:44:00,70.9,31.3,29.96,SSW,198,8.1,8.1,23,0.00,,,0.00,VWS V14.00,2013-04-22 20:44:00,
2013-04-22 16:50:00,70.9,31.3,29.96,SSW,205,4.5,4.5,23,0.00,,,0.00,VWS V14.00,2013-04-22 20:50:00,
2013-04-22 16:55:00,70.7,31.1,29.96,SSE,161,5.4,5.4,23,0.00,,,0.00,VWS V14.00,2013-04-22 20:55:00,
2013-04-22 17:01:00,70.3,29.7,29.96,SSW,210,4.0,4.0,22,0.00,,,0.00,VWS V14.00,2013-04-22 21:01:00,
2013-04-22 17:06:00,70.3,30.8,29.96,South,181,3.6,3.6,23,0.00,,,0.00,VWS V14.00,2013-04-22 21:06:00,
2013-04-22 17:11:00,70.5,31.0,29.96,NNE,13,3.6,3.6,23,0.00,,,0.00,VWS V14.00,2013-04-22 21:11:00,
2013-04-22 17:16:00,70.7,31.1,29.96,NNW,330,3.1,3.1,23,0.00,,,0.00,VWS V14.00,2013-04-22 21:16:00,
2013-04-22 17:22:00,70.5,31.0,29.96,SSE,156,3.6,3.6,23,0.00,,,0.00,VWS V14.00,2013-04-22 21:22:00,
2013-04-22 17:27:00,70.7,31.1,29.93,South,183,4.9,4.9,23,0.00,,,0.00,VWS V14.00,2013-04-22 21:27:00,
2013-04-22 17:32:00,70.5,31.0,29.93,West,261,2.7,3.1,23,0.00,,,0.00,VWS V14.00,2013-04-22 21:32:00,
2013-04-22 17:37:00,70.7,30.0,29.93,SSW,200,4.9,6.3,22,0.00,,,0.00,VWS V14.00,2013-04-22 21:37:00,
2013-04-22 17:43:00,70.5,31.0,29.93,SSE,148,2.7,6.3,23,0.00,,,0.00,VWS V14.00,2013-04-22 21:43:00,
2013-04-22 17:49:00,70.5,29.9,29.93,ENE,68,4.9,4.9,22,0.00,,,0.00,VWS V14.00,2013-04-22 21:49:00,
2013-04-22 17:54:00,70.7,31.1,29.93,South,169,4.0,4.0,23,0.00,,,0.00,VWS V14.00,2013-04-22 21:54:00,
2013-04-22 17:59:00,70.7,31.1,29.93,NNE,22,2.2,3.1,23,0.00,,,0.00,VWS V14.00,2013-04-22 21:59:00,
2013-04-22 18:04:00,70.5,31.0,29.93,WNW,300,3.1,3.1,23,0.00,,,0.00,VWS V14.00,2013-04-22 22:04:00,
2013-04-22 18:10:00,70.5,29.9,29.93,South,181,6.3,6.3,22,0.00,,,0.00,VWS V14.00,2013-04-22 22:10:00,
2013-04-22 18:15:00,70.3,29.7,29.93,SSW,201,6.7,6.7,22,0.00,,,0.00,VWS V14.00,2013-04-22 22:15:00,
2013-04-22 18:20:00,70.2,29.6,29.93,NNE,15,2.7,2.7,22,0.00,,,0.00,VWS V14.00,2013-04-22 22:20:00,
2013-04-22 18:26:00,70.0,30.5,29.93,NNE,19,2.2,2.2,23,0.00,,,0.00,VWS V14.00,2013-04-22 22:26:00,
2013-04-22 18:32:00,69.8,29.3,29.93,SSW,212,5.8,5.8,22,0.00,,,0.00,VWS V14.00,2013-04-22 22:32:00,
2013-04-22 18:37:00,69.6,30.2,29.93,WSW,239,0.0,3.6,23,0.00,,,0.00,VWS V14.00,2013-04-22 22:37:00,
2013-04-22 18:42:00,69.4,30.1,29.93,WSW,246,3.1,4.0,23,0.00,,,0.00,VWS V14.00,2013-04-22 22:42:00,
2013-04-22 18:47:00,69.3,29.9,29.93,ENE,70,3.6,3.6,23,0.00,,,0.00,VWS V14.00,2013-04-22 22:47:00,
2013-04-22 18:53:00,69.1,29.8,29.93,South,178,3.1,6.7,23,0.00,,,0.00,VWS V14.00,2013-04-22 22:53:00,
2013-04-22 18:58:00,68.9,29.6,29.93,SE,143,3.1,4.0,23,0.00,,,0.00,VWS V14.00,2013-04-22 22:58:00,
2013-04-22 19:04:00,68.7,29.5,29.93,NNW,343,2.2,2.7,23,0.00,,,0.00,VWS V14.00,2013-04-22 23:04:00,
2013-04-22 19:10:00,68.5,29.3,29.93,West,262,3.6,3.6,23,0.00,,,0.00,VWS V14.00,2013-04-22 23:10:00,
2013-04-22 19:15:00,67.8,28.7,29.93,NNW,329,0.0,0.0,23,0.00,,,0.00,VWS V14.00,2013-04-22 23:15:00,
2013-04-22 19:20:00,67.3,28.2,29.93,South,191,2.7,2.7,23,0.00,,,0.00,VWS V14.00,2013-04-22 23:20:00,
2013-04-22 19:25:00,66.7,27.8,29.93,South,176,4.0,4.0,23,0.00,,,0.00,VWS V14.00,2013-04-22 23:25:00,
2013-04-22 19:30:00,66.6,27.6,29.93,SW,217,3.6,4.0,23,0.00,,,0.00,VWS V14.00,2013-04-22 23:30:00,
2013-04-22 19:35:00,65.7,26.9,29.93,SSE,165,5.4,5.4,23,0.00,,,0.00,VWS V14.00,2013-04-22 23:35:00,
2013-04-22 19:41:00,64.9,26.3,29.93,South,182,2.2,3.1,23,0.00,,,0.00,VWS V14.00,2013-04-22 23:41:00,
2013-04-22 19:46:00,64.4,26.9,29.93,SSE,160,4.0,4.0,24,0.00,,,0.00,VWS V14.00,2013-04-22 23:46:00,
2013-04-22 19:52:00,63.9,26.4,29.93,SSE,152,4.9,4.9,24,0.00,,,0.00,VWS V14.00,2013-04-22 23:52:00,
2013-04-22 19:57:00,63.5,26.1,29.93,NE,42,3.1,3.1,24,0.00,,,0.00,VWS V14.00,2013-04-22 23:57:00,
2013-04-22 20:03:00,63.0,25.6,29.93,SSW,204,3.1,3.1,24,0.00,,,0.00,VWS V14.00,2013-04-23 00:03:00,
2013-04-22 20:08:00,62.6,25.3,29.90,SE,143,2.7,3.1,24,0.00,,,0.00,VWS V14.00,2013-04-23 00:08:00,
2013-04-22 20:14:00,62.1,25.9,29.90,SSW,200,2.2,2.7,25,0.00,,,0.00,VWS V14.00,2013-04-23 00:14:00,
2013-04-22 20:19:00,61.9,25.7,29.90,South,181,0.0,0.0,25,0.00,,,0.00,VWS V14.00,2013-04-23 00:19:00,
2013-04-22 20:24:00,61.5,25.4,29.90,South,183,0.0,0.0,25,0.00,,,0.00,VWS V14.00,2013-04-23 00:24:00,
2013-04-22 20:29:00,61.0,24.9,29.90,SSW,205,0.0,0.0,25,0.00,,,0.00,VWS V14.00,2013-04-23 00:29:00,
2013-04-22 20:35:00,60.6,25.6,29.90,South,187,0.0,0.0,26,0.00,,,0.00,VWS V14.00,2013-04-23 00:35:00,
2013-04-22 20:41:00,59.9,25.0,29.90,South,191,2.2,2.2,26,0.00,,,0.00,VWS V14.00,2013-04-23 00:41:00,
2013-04-22 20:46:00,59.5,25.5,29.90,SSW,201,2.7,2.7,27,0.00,,,0.00,VWS V14.00,2013-04-23 00:46:00,
2013-04-22 20:51:00,59.4,25.4,29.90,SSW,192,0.0,2.7,27,0.00,,,0.00,VWS V14.00,2013-04-23 00:51:00,
2013-04-22 20:56:00,59.0,25.1,29.90,SSW,192,0.0,0.0,27,0.00,,,0.00,VWS V14.00,2013-04-23 00:56:00,
2013-04-22 21:01:00,58.5,25.5,29.90,South,190,0.0,0.0,28,0.00,,,0.00,VWS V14.00,2013-04-23 01:01:00,
2013-04-22 21:07:00,58.1,26.0,29.93,South,190,0.0,0.0,29,0.00,,,0.00,VWS V14.00,2013-04-23 01:07:00,
2013-04-22 21:12:00,57.9,25.9,29.93,South,190,0.0,0.0,29,0.00,,,0.00,VWS V14.00,2013-04-23 01:12:00,
2013-04-22 21:17:00,57.2,26.9,29.93,South,190,0.0,0.0,31,0.00,,,0.00,VWS V14.00,2013-04-23 01:17:00,
2013-04-22 21:23:00,56.8,27.3,29.93,South,190,0.0,0.0,32,0.00,,,0.00,VWS V14.00,2013-04-23 01:23:00,
2013-04-22 21:28:00,56.7,27.9,29.93,South,190,0.0,0.0,33,0.00,,,0.00,VWS V14.00,2013-04-23 01:28:00,
2013-04-22 21:33:00,56.1,28.9,29.93,South,190,0.0,0.0,35,0.00,,,0.00,VWS V14.00,2013-04-23 01:33:00,
2013-04-22 21:38:00,55.8,28.5,29.93,South,190,0.0,0.0,35,0.00,,,0.00,VWS V14.00,2013-04-23 01:38:00,
2013-04-22 21:44:00,55.2,28.8,29.93,South,190,0.0,0.0,36,0.00,,,0.00,VWS V14.00,2013-04-23 01:44:00,
2013-04-22 21:49:00,54.7,28.3,29.93,South,190,0.0,0.0,36,0.00,,,0.00,VWS V14.00,2013-04-23 01:49:00,
2013-04-22 21:55:00,54.3,28.0,29.93,South,190,0.0,0.0,36,0.00,,,0.00,VWS V14.00,2013-04-23 01:55:00,
2013-04-22 22:01:00,53.8,28.1,29.93,South,190,0.0,0.0,37,0.00,,,0.00,VWS V14.00,2013-04-23 02:01:00,
2013-04-22 22:06:00,53.6,28.0,29.93,South,190,0.0,0.0,37,0.00,,,0.00,VWS V14.00,2013-04-23 02:06:00,
2013-04-22 22:12:00,53.1,28.1,29.93,South,190,0.0,0.0,38,0.00,,,0.00,VWS V14.00,2013-04-23 02:12:00,
2013-04-22 22:17:00,52.9,28.0,29.93,South,190,0.0,0.0,38,0.00,,,0.00,VWS V14.00,2013-04-23 02:17:00,
2013-04-22 22:23:00,52.5,28.3,29.93,South,190,0.0,0.0,39,0.00,,,0.00,VWS V14.00,2013-04-23 02:23:00,
2013-04-22 22:28:00,52.0,28.4,29.93,South,190,0.0,0.0,40,0.00,,,0.00,VWS V14.00,2013-04-23 02:28:00,
2013-04-22 22:34:00,51.6,28.7,29.93,South,190,0.0,0.0,41,0.00,,,0.00,VWS V14.00,2013-04-23 02:34:00,
2013-04-22 22:39:00,51.1,28.8,29.93,South,190,0.0,0.0,42,0.00,,,0.00,VWS V14.00,2013-04-23 02:39:00,
2013-04-22 22:44:00,50.7,29.1,29.93,South,191,0.0,0.0,43,0.00,,,0.00,VWS V14.00,2013-04-23 02:44:00,
2013-04-22 22:50:00,50.5,28.9,29.93,South,190,0.0,0.0,43,0.00,,,0.00,VWS V14.00,2013-04-23 02:50:00,
2013-04-22 22:55:00,50.2,28.6,29.93,South,190,0.0,0.0,43,0.00,,,0.00,VWS V14.00,2013-04-23 02:55:00,
2013-04-22 23:00:00,49.8,28.8,29.93,South,189,0.0,0.0,44,0.00,,,0.00,VWS V14.00,2013-04-23 03:00:00,
2013-04-22 23:05:00,49.5,28.5,29.93,South,190,0.0,0.0,44,0.00,,,0.00,VWS V14.00,2013-04-23 03:05:00,
2013-04-22 23:10:00,49.3,28.9,29.93,South,191,0.0,0.0,45,0.00,,,0.00,VWS V14.00,2013-04-23 03:10:00,
2013-04-22 23:16:00,48.9,29.1,29.90,South,190,0.0,0.0,46,0.00,,,0.00,VWS V14.00,2013-04-23 03:16:00,
2013-04-22 23:21:00,48.9,29.6,29.90,SSW,200,2.2,2.7,47,0.00,,,0.00,VWS V14.00,2013-04-23 03:21:00,
2013-04-22 23:26:00,48.9,29.6,29.90,SSW,200,0.0,0.0,47,0.00,,,0.00,VWS V14.00,2013-04-23 03:26:00,
2013-04-22 23:31:00,48.9,29.1,29.90,SSW,200,0.0,0.0,46,0.00,,,0.00,VWS V14.00,2013-04-23 03:31:00,
2013-04-22 23:37:00,48.9,29.1,29.90,SSW,200,0.0,0.0,46,0.00,,,0.00,VWS V14.00,2013-04-23 03:37:00,
2013-04-22 23:43:00,48.9,29.1,29.90,SW,224,0.0,2.2,46,0.00,,,0.00,VWS V14.00,2013-04-23 03:43:00,
2013-04-22 23:48:00,49.1,29.2,29.90,SW,225,0.0,0.0,46,0.00,,,0.00,VWS V14.00,2013-04-23 03:48:00,
2013-04-22 23:54:00,49.3,28.9,29.90,WSW,245,0.0,0.0,45,0.00,,,0.00,VWS V14.00,2013-04-23 03:54:00,
2013-04-22 23:59:00,49.6,29.2,29.90,WSW,246,3.6,3.6,45,0.00,,,0.00,VWS V14.00,2013-04-23 03:59:00,